Weather History for Silver Bay, MN

Change the Weather History Date:

Wednesday, September 18, 2013

  Actual Average Record
Temperature  
Mean Temperature 55 °F -  
Max Temperature 59 °F 62 °F 82 °F (2000)
Min Temperature 51 °F 40 °F 26 °F (2012)
Degree Days  
Heating Degree Days 10    
Growing Degree Days 5 (Base 50)    
Moisture  
Dew Point 52 °F    
Average Humidity 90    
Maximum Humidity 94    
Minimum Humidity 82    
Precipitation  
Precipitation 0.04 in - - ()
Sea Level Pressure  
Sea Level Pressure 29.85 in    
Wind  
Wind Speed 1 mph (NE)    
Max Wind Speed 6 mph    
Max Gust Speed -    
Visibility 4 miles    
Events Fog , Rain    
Averages and records for this station are not official NWS values.
T = Trace of Precipitation, MM = Missing Value Source: NWS Daily Summary

Daily Weather History Graph

Daily Weather History Graph

Search for Another Location

Airport:

Trip Planner

Search our weather history database for the weather conditions in past years. The results will help you decide how hot, cold, wet, or windy it might be!

Date:

Astronomy

Sep. 18, 2013 Rise Set
Actual Time 6:47 AM CDT 7:10 PM CDT
Civil Twilight 6:16 AM CDT 7:41 PM CDT
Nautical Twilight 5:40 AM CDT 8:17 PM CDT
Astronomical Twilight 5:02 AM CDT 8:55 PM CDT
Moon 6:32 PM CDT (9/18) 5:49 AM CDT (9/18)
Length of Visible Light 13h 24m
Length of Day
12h 23m
Waxing Gibbous, 99% of the Moon is Illuminated
Sep 18
Waxing Gibbous
Sep 19
Full
Sep 26
Last Quarter
Oct 4
New
Oct 11
First Quarter

Hourly Weather History & Observations

Time (CDT) Temp. Dew Point Humidity Pressure Visibility Wind Dir Wind Speed Gust Speed Precip Events Conditions
12:13 AM 51.8 °F 46.4 °F 82% 29.96 in 10.0 mi Calm Calm - N/A   Scattered Clouds
12:33 AM 51.8 °F 46.4 °F 82% 29.96 in 10.0 mi Calm Calm - N/A   Scattered Clouds
12:53 AM 51.8 °F 46.4 °F 82% 29.96 in 10.0 mi Calm Calm - N/A   Mostly Cloudy
1:13 AM 51.8 °F 48.2 °F 88% 29.96 in 10.0 mi Calm Calm - N/A   Mostly Cloudy
1:33 AM 51.8 °F 48.2 °F 88% 29.95 in 10.0 mi Calm Calm - N/A   Mostly Cloudy
1:53 AM 51.8 °F 48.2 °F 88% 29.95 in 10.0 mi Calm Calm - N/A   Mostly Cloudy
2:13 AM 51.8 °F 48.2 °F 88% 29.94 in 10.0 mi Calm Calm - N/A   Mostly Cloudy
2:33 AM 51.8 °F 48.2 °F 88% 29.93 in 10.0 mi Calm Calm - N/A   Mostly Cloudy
2:53 AM 51.8 °F 48.2 °F 88% 29.92 in 10.0 mi Calm Calm - N/A   Scattered Clouds
3:13 AM 53.6 °F 48.2 °F 82% 29.91 in 10.0 mi Calm Calm - N/A   Scattered Clouds
3:33 AM 53.6 °F 48.2 °F 82% 29.90 in 10.0 mi Calm Calm - N/A   Clear
3:53 AM 53.6 °F 48.2 °F 82% 29.90 in 10.0 mi Calm Calm - N/A   Clear
4:13 AM 53.6 °F 48.2 °F 82% 29.90 in 10.0 mi Calm Calm - N/A   Clear
4:33 AM 53.6 °F 48.2 °F 82% 29.90 in 10.0 mi Calm Calm - N/A   Clear
4:53 AM 53.6 °F 48.2 °F 82% 29.89 in 10.0 mi Calm Calm - N/A   Scattered Clouds
5:13 AM 53.6 °F 48.2 °F 82% 29.89 in 5.0 mi Calm Calm - N/A Rain Light Rain
5:33 AM 51.8 °F 48.2 °F 88% 29.89 in 7.0 mi Calm Calm - N/A   Scattered Clouds
5:53 AM 51.8 °F 48.2 °F 88% 29.89 in 4.0 mi Calm Calm - N/A   Overcast
6:13 AM 51.8 °F 48.2 °F 88% 29.88 in 2.0 mi Calm Calm - N/A   Overcast
6:33 AM 51.8 °F 50.0 °F 94% 29.88 in 1.8 mi Calm Calm - N/A   Overcast
6:53 AM 51.8 °F 50.0 °F 94% 29.88 in 1.5 mi Calm Calm - N/A   Overcast
7:13 AM 51.8 °F 50.0 °F 94% 29.88 in 1.5 mi Calm Calm - N/A   Overcast
7:33 AM 53.6 °F 50.0 °F 88% 29.88 in 1.5 mi Calm Calm - N/A   Overcast
7:53 AM 53.6 °F 50.0 °F 88% 29.87 in 0.8 mi Calm Calm - N/A   Overcast
8:13 AM 53.6 °F 51.8 °F 94% 29.87 in 0.5 mi Calm Calm - N/A Fog Fog
8:33 AM 53.6 °F 51.8 °F 94% 29.87 in 0.8 mi Calm Calm - N/A   Overcast
8:53 AM 55.4 °F 51.8 °F 88% 29.87 in 1.0 mi Calm Calm - N/A   Overcast
9:13 AM 55.4 °F 51.8 °F 88% 29.87 in 1.0 mi Calm Calm - N/A   Overcast
9:33 AM 55.4 °F 51.8 °F 88% 29.87 in 1.0 mi Calm Calm - N/A   Overcast
9:53 AM 55.4 °F 53.6 °F 94% 29.87 in 1.0 mi Calm Calm - N/A   Overcast
10:13 AM 55.4 °F 53.6 °F 94% 29.87 in 2.0 mi Calm Calm - N/A   Overcast
10:33 AM 55.4 °F 53.6 °F 94% 29.87 in 2.5 mi Calm Calm - N/A   Overcast
10:53 AM 55.4 °F 53.6 °F 94% 29.88 in 2.0 mi Calm Calm - N/A   Overcast
11:13 AM 55.4 °F 53.6 °F 94% 29.87 in 3.0 mi Calm Calm - N/A   Light Drizzle
11:33 AM 57.2 °F 53.6 °F 88% 29.86 in 1.2 mi Calm Calm - N/A   Light Drizzle
11:53 AM 55.4 °F 53.6 °F 94% 29.85 in 1.2 mi Calm Calm - N/A   Overcast
12:13 PM 57.2 °F 53.6 °F 88% 29.84 in 2.0 mi Calm Calm - N/A   Overcast
12:33 PM 57.2 °F 55.4 °F 94% 29.83 in 3.0 mi Calm Calm - N/A   Overcast
12:53 PM 59.0 °F 55.4 °F 88% 29.82 in 5.0 mi NNE 4.6 mph - N/A   Overcast
1:13 PM 59.0 °F 55.4 °F 88% 29.82 in 7.0 mi ENE 3.5 mph - N/A   Overcast
1:33 PM 59.0 °F 55.4 °F 88% 29.81 in 5.0 mi ENE 3.5 mph - N/A   Overcast
1:53 PM 59.0 °F 55.4 °F 88% 29.81 in 5.0 mi ENE 3.5 mph - N/A   Overcast
2:13 PM 59.0 °F 55.4 °F 88% 29.80 in 5.0 mi ENE 4.6 mph - N/A   Overcast
2:33 PM 57.2 °F 55.4 °F 94% 29.80 in 4.0 mi ENE 4.6 mph - N/A   Overcast
2:53 PM 57.2 °F 53.6 °F 88% 29.80 in 2.5 mi ENE 5.8 mph - N/A   Overcast
3:13 PM 55.4 °F 53.6 °F 94% 29.80 in 0.5 mi ENE 4.6 mph - N/A Fog Fog
3:33 PM 57.2 °F 53.6 °F 88% 29.80 in 1.0 mi NE 3.5 mph - N/A   Overcast
3:53 PM 57.2 °F 53.6 °F 88% 29.80 in 1.2 mi NE 4.6 mph - N/A Rain Light Rain
4:15 PM 57.2 °F 55.4 °F 94% 29.79 in 1.5 mi NNE 3.5 mph - 0.01 in   Light Drizzle
4:33 PM 57.2 °F 55.4 °F 94% 29.79 in 1.8 mi Calm Calm - 0.01 in   Light Drizzle
4:53 PM 57.2 °F 55.4 °F 94% 29.79 in 1.5 mi NE 3.5 mph - N/A Rain Light Rain
5:13 PM 57.2 °F 55.4 °F 94% 29.78 in 1.5 mi NNE 5.8 mph - 0.01 in   Light Drizzle
5:33 PM 57.2 °F 55.4 °F 94% 29.79 in 1.0 mi Calm Calm - 0.01 in   Light Drizzle
5:53 PM 57.2 °F 55.4 °F 94% 29.78 in 0.5 mi NE 4.6 mph - N/A Fog Fog
6:13 PM 57.2 °F 55.4 °F 94% 29.78 in 1.0 mi NE 4.6 mph - N/A   Light Drizzle
6:33 PM 57.2 °F 55.4 °F 94% 29.77 in 1.2 mi NE 4.6 mph - N/A   Light Drizzle
6:53 PM 57.2 °F 55.4 °F 94% 29.77 in 1.5 mi NE 3.5 mph - N/A   Overcast
7:13 PM 57.2 °F 55.4 °F 94% 29.78 in 1.0 mi NE 3.5 mph - N/A   Overcast
7:33 PM 57.2 °F 55.4 °F 94% 29.78 in 0.8 mi NE 4.6 mph - N/A   Overcast
7:53 PM 57.2 °F 55.4 °F 94% 29.78 in 0.5 mi NNE 4.6 mph - 0.01 in Fog Fog
8:13 PM 57.2 °F 55.4 °F 94% 29.78 in 0.5 mi Calm Calm - 0.01 in Fog Fog
8:33 PM 57.2 °F 55.4 °F 94% 29.79 in 0.5 mi NE 4.6 mph - 0.01 in Fog Fog
8:53 PM 57.2 °F 55.4 °F 94% 29.79 in 0.8 mi NE 3.5 mph - N/A   Overcast
9:13 PM 57.2 °F 55.4 °F 94% 29.79 in 0.8 mi NNE 3.5 mph - N/A   Overcast
9:33 PM 57.2 °F 55.4 °F 94% 29.79 in 1.2 mi NE 3.5 mph - N/A   Overcast
9:53 PM 57.2 °F 55.4 °F 94% 29.79 in 0.8 mi NNE 4.6 mph - N/A   Overcast
10:13 PM 57.2 °F 55.4 °F 94% 29.80 in 2.0 mi NNE 3.5 mph - N/A   Overcast
10:33 PM 59.0 °F 55.4 °F 88% 29.80 in 2.0 mi NE 3.5 mph - N/A   Overcast
10:53 PM 59.0 °F 55.4 °F 88% 29.80 in 1.8 mi NNE 4.6 mph - N/A   Overcast
11:13 PM 59.0 °F 55.4 °F 88% 29.79 in 1.8 mi NNE 4.6 mph - N/A   Overcast
11:33 PM 59.0 °F 55.4 °F 88% 29.78 in 2.0 mi NNE 3.5 mph - N/A   Overcast
11:53 PM 59.0 °F 55.4 °F 88% 29.77 in 1.8 mi NNE 3.5 mph - N/A   Overcast